| time (UTC) | temp F | wind direction | speed MPH | gust MPH | rain 1hr in | rain 24hr in | rain mn in | humidity % | barometer mb |
| 20260831034025 | 65 | 0 | 0.0 | 0.0 | 0.00 | 0.00 | 0.00 | 49 | 1017.0 |
| 20260831033525 | 65 | 0 | 0.0 | 0.0 | 0.00 | 0.00 | 0.00 | 49 | 1016.9 |
| 20260831033052 | 65 | 0 | 0.0 | 0.0 | 0.00 | 0.00 | 0.00 | 49 | 1016.9 |
| 20260831032524 | 65 | 0 | 0.0 | 0.0 | 0.00 | 0.00 | 0.00 | 49 | 1016.9 |
| 20260831032026 | 65 | 0 | 0.0 | 0.0 | 0.00 | 0.00 | 0.00 | 49 | 1016.8 |
| 20260831031541 | 66 | 0 | 0.0 | 0.0 | 0.00 | 0.00 | 0.00 | 49 | 1016.8 |
| 20260831031030 | 66 | 0 | 0.0 | 0.0 | 0.00 | 0.00 | 0.00 | 49 | 1016.9 |
| 20260831030524 | 66 | 0 | 0.0 | 0.0 | 0.00 | 0.00 | 0.00 | 49 | 1016.8 |
| 20260831030053 | 67 | 0 | 0.0 | 0.0 | 0.00 | 0.00 | 0.00 | 49 | 1016.8 |
| 20260831025525 | 67 | 0 | 0.0 | 0.0 | 0.00 | 0.00 | 0.00 | 49 | 1016.8 |
| 20260831025025 | 67 | 0 | 0.0 | 1.0 | 0.00 | 0.00 | 0.00 | 48 | 1016.8 |
| 20260831024554 | 68 | 0 | 0.0 | 2.0 | 0.00 | 0.00 | 0.00 | 48 | 1016.8 |
| 20260831024028 | 68 | 225 | 1.0 | 2.0 | 0.00 | 0.00 | 0.00 | 48 | 1016.7 |
| 20260831023524 | 68 | 225 | 0.0 | 2.0 | 0.00 | 0.00 | 0.00 | 48 | 1016.8 |
| 20260831023044 | 69 | 0 | 0.0 | 0.0 | 0.00 | 0.00 | 0.00 | 47 | 1016.8 |
| 20260831022521 | 69 | 0 | 0.0 | 0.0 | 0.00 | 0.00 | 0.00 | 47 | 1016.8 |
| 20260831022024 | 70 | 0 | 0.0 | 0.0 | 0.00 | 0.00 | 0.00 | 46 | 1016.8 |
| 20260831021542 | 70 | 0 | 0.0 | 0.0 | 0.00 | 0.00 | 0.00 | 46 | 1016.8 |
| 20260831021031 | 71 | 0 | 0.0 | 3.0 | 0.00 | 0.00 | 0.00 | 46 | 1016.8 |
| 20260831020525 | 71 | 0 | 1.0 | 3.0 | 0.00 | 0.00 | 0.00 | 44 | 1016.8 |
| 20260831015526 | 71 | 225 | 0.0 | 4.0 | 0.00 | 0.00 | 0.00 | 43 | 1016.8 |
| 20260831015022 | 72 | 225 | 2.0 | 4.0 | 0.00 | 0.00 | 0.00 | 43 | 1016.8 |
| 20260831014545 | 72 | 215 | 2.0 | 4.0 | 0.00 | 0.00 | 0.00 | 43 | 1016.8 |
| 20260831014019 | 72 | 243 | 1.0 | 5.0 | 0.00 | 0.00 | 0.00 | 43 | 1016.7 |
| 20260831013524 | 72 | 241 | 2.0 | 5.0 | 0.00 | 0.00 | 0.00 | 42 | 1016.8 |
| 20260831013052 | 72 | 224 | 2.0 | 5.0 | 0.00 | 0.00 | 0.00 | 42 | 1016.8 |
| 20260831012524 | 73 | 215 | 2.0 | 5.0 | 0.00 | 0.00 | 0.00 | 42 | 1016.8 |
| 20260831012026 | 73 | 197 | 2.0 | 4.0 | 0.00 | 0.00 | 0.00 | 42 | 1017.0 |
| 20260831011604 | 73 | 238 | 2.0 | 6.0 | 0.00 | 0.00 | 0.00 | 41 | 1017.0 |
| 20260831011024 | 74 | 240 | 1.0 | 6.0 | 0.00 | 0.00 | 0.00 | 42 | 1016.9 |
| 20260831010525 | 74 | 219 | 2.0 | 6.0 | 0.00 | 0.00 | 0.00 | 42 | 1017.1 |
| 20260831010047 | 74 | 202 | 2.0 | 6.0 | 0.00 | 0.00 | 0.00 | 41 | 1017.0 |
| 20260831005521 | 74 | 246 | 2.0 | 5.0 | 0.00 | 0.00 | 0.00 | 41 | 1017.0 |
| 20260831005026 | 74 | 241 | 3.0 | 7.0 | 0.00 | 0.00 | 0.00 | 41 | 1016.9 |
| 20260831004548 | 74 | 210 | 2.0 | 8.0 | 0.00 | 0.00 | 0.00 | 41 | 1017.0 |
| 20260831004026 | 74 | 263 | 4.0 | 8.0 | 0.00 | 0.00 | 0.00 | 40 | 1016.9 |
| 20260831003526 | 75 | 265 | 2.0 | 5.0 | 0.00 | 0.00 | 0.00 | 39 | 1016.9 |
| 20260831003051 | 75 | 0 | 2.0 | 9.0 | 0.00 | 0.00 | 0.00 | 39 | 1016.9 |
| 20260831002526 | 75 | 227 | 4.0 | 9.0 | 0.00 | 0.00 | 0.00 | 40 | 1017.0 |
| 20260831002026 | 75 | 207 | 2.0 | 7.0 | 0.00 | 0.00 | 0.00 | 39 | 1017.0 |
| 20260831001549 | 75 | 226 | 3.0 | 6.0 | 0.00 | 0.00 | 0.00 | 40 | 1017.0 |
| 20260831001024 | 75 | 227 | 1.0 | 6.0 | 0.00 | 0.00 | 0.00 | 40 | 1017.0 |
| 20260831000525 | 75 | 194 | 2.0 | 7.0 | 0.00 | 0.00 | 0.00 | 39 | 1017.1 |
| 20260831000046 | 75 | 299 | 2.0 | 7.0 | 0.00 | 0.00 | 0.00 | 40 | 1017.1 |
| 20260830235524 | 75 | 250 | 3.0 | 7.0 | 0.00 | 0.00 | 0.00 | 40 | 1017.0 |
| 20260830235027 | 75 | 185 | 4.0 | 7.0 | 0.00 | 0.00 | 0.00 | 39 | 1017.1 |
| 20260830234606 | 75 | 193 | 2.0 | 7.0 | 0.00 | 0.00 | 0.00 | 39 | 1017.0 |
| 20260830234024 | 75 | 192 | 3.0 | 9.0 | 0.00 | 0.00 | 0.00 | 40 | 1017.1 |
| 20260830233525 | 75 | 231 | 5.0 | 9.0 | 0.00 | 0.00 | 0.00 | 39 | 1017.1 |
| 20260830233048 | 76 | 246 | 2.0 | 9.0 | 0.00 | 0.00 | 0.00 | 40 | 1017.1 |
| 20260830232526 | 75 | 201 | 2.0 | 9.0 | 0.00 | 0.00 | 0.00 | 39 | 1017.1 |
| 20260830232027 | 76 | 244 | 5.0 | 13.0 | 0.00 | 0.00 | 0.00 | 38 | 1017.0 |
| 20260830231556 | 77 | 234 | 5.0 | 13.0 | 0.00 | 0.00 | 0.00 | 38 | 1017.1 |
| 20260830231024 | 77 | 222 | 2.0 | 7.0 | 0.00 | 0.00 | 0.00 | 36 | 1017.1 |
| 20260830230521 | 77 | 213 | 4.0 | 7.0 | 0.00 | 0.00 | 0.00 | 37 | 1017.2 |
| 20260830230043 | 77 | 232 | 2.0 | 9.0 | 0.00 | 0.00 | 0.00 | 38 | 1017.2 |
| 20260830225521 | 77 | 185 | 3.0 | 10.0 | 0.00 | 0.00 | 0.00 | 38 | 1017.3 |
| 20260830225020 | 77 | 209 | 5.0 | 10.0 | 0.00 | 0.00 | 0.00 | 38 | 1017.3 |
| 20260830224543 | 77 | 222 | 2.0 | 7.0 | 0.00 | 0.00 | 0.00 | 37 | 1017.4 |
| 20260830224020 | 77 | 213 | 4.0 | 9.0 | 0.00 | 0.00 | 0.00 | 36 | 1017.3 |
| 20260830223520 | 77 | 178 | 4.0 | 10.0 | 0.00 | 0.00 | 0.00 | 36 | 1017.4 |
| 20260830223041 | 77 | 212 | 3.0 | 10.0 | 0.00 | 0.00 | 0.00 | 37 | 1017.5 |
| 20260830222522 | 77 | 207 | 6.0 | 10.0 | 0.00 | 0.00 | 0.00 | 36 | 1017.6 |
| 20260830222023 | 78 | 246 | 4.0 | 10.0 | 0.00 | 0.00 | 0.00 | 35 | 1017.5 |
| 20260830221546 | 78 | 215 | 4.0 | 10.0 | 0.00 | 0.00 | 0.00 | 36 | 1017.7 |
| 20260830221021 | 78 | 209 | 4.0 | 12.0 | 0.00 | 0.00 | 0.00 | 36 | 1017.7 |
| 20260830220520 | 78 | 209 | 4.0 | 12.0 | 0.00 | 0.00 | 0.00 | 35 | 1017.7 |
| 20260830220056 | 79 | 228 | 5.0 | 12.0 | 0.00 | 0.00 | 0.00 | 35 | 1017.7 |
| 20260830215520 | 78 | 209 | 3.0 | 10.0 | 0.00 | 0.00 | 0.00 | 35 | 1017.7 |
| 20260830215023 | 78 | 197 | 5.0 | 10.0 | 0.00 | 0.00 | 0.00 | 35 | 1017.8 |
| 20260830214544 | 79 | 188 | 4.0 | 10.0 | 0.00 | 0.00 | 0.00 | 35 | 1017.9 |
| 20260830214020 | 79 | 186 | 3.0 | 10.0 | 0.00 | 0.00 | 0.00 | 36 | 1017.9 |
| 20260830213523 | 79 | 205 | 4.0 | 9.0 | 0.00 | 0.00 | 0.00 | 35 | 1017.9 |
| 20260830213050 | 78 | 232 | 2.0 | 9.0 | 0.00 | 0.00 | 0.00 | 36 | 1018.0 |
| 20260830212523 | 78 | 195 | 4.0 | 9.0 | 0.00 | 0.00 | 0.00 | 36 | 1018.2 |
| 20260830212020 | 79 | 195 | 4.0 | 8.0 | 0.00 | 0.00 | 0.00 | 38 | 1018.1 |
| 20260830211553 | 79 | 186 | 2.0 | 9.0 | 0.00 | 0.00 | 0.00 | 35 | 1018.1 |
| 20260830211021 | 79 | 221 | 5.0 | 15.0 | 0.00 | 0.00 | 0.00 | 35 | 1018.2 |
| 20260830210521 | 78 | 223 | 5.0 | 15.0 | 0.00 | 0.00 | 0.00 | 35 | 1018.2 |
| 20260830210054 | 78 | 261 | 7.0 | 12.0 | 0.00 | 0.00 | 0.00 | 35 | 1018.2 |
| 20260830205525 | 78 | 198 | 3.0 | 9.0 | 0.00 | 0.00 | 0.00 | 36 | 1018.1 |
| 20260830205019 | 79 | 214 | 4.0 | 10.0 | 0.00 | 0.00 | 0.00 | 36 | 1018.3 |
| 20260830204539 | 79 | 192 | 5.0 | 10.0 | 0.00 | 0.00 | 0.00 | 36 | 1018.1 |
| 20260830204024 | 79 | 176 | 3.0 | 10.0 | 0.00 | 0.00 | 0.00 | 36 | 1018.2 |
| 20260830203521 | 79 | 234 | 4.0 | 11.0 | 0.00 | 0.00 | 0.00 | 35 | 1018.2 |
| 20260830203047 | 79 | 223 | 6.0 | 11.0 | 0.00 | 0.00 | 0.00 | 34 | 1018.2 |
| 20260830202521 | 79 | 213 | 3.0 | 11.0 | 0.00 | 0.00 | 0.00 | 36 | 1018.1 |
| 20260830202023 | 79 | 197 | 2.0 | 9.0 | 0.00 | 0.00 | 0.00 | 37 | 1018.1 |
| 20260830201542 | 79 | 183 | 3.0 | 10.0 | 0.00 | 0.00 | 0.00 | 36 | 1018.2 |
| 20260830201020 | 79 | 222 | 3.0 | 10.0 | 0.00 | 0.00 | 0.00 | 36 | 1018.0 |
| 20260830200520 | 79 | 198 | 4.0 | 10.0 | 0.00 | 0.00 | 0.00 | 36 | 1018.1 |
| 20260830200039 | 79 | 352 | 2.0 | 8.0 | 0.00 | 0.00 | 0.00 | 36 | 1018.1 |
| 20260830195520 | 79 | 258 | 2.0 | 9.0 | 0.00 | 0.00 | 0.00 | 38 | 1018.1 |
| 20260830195023 | 78 | 170 | 5.0 | 9.0 | 0.00 | 0.00 | 0.00 | 37 | 1018.1 |
| 20260830194539 | 78 | 201 | 3.0 | 10.0 | 0.00 | 0.00 | 0.00 | 38 | 1018.1 |
| 20260830194024 | 78 | 188 | 3.0 | 10.0 | 0.00 | 0.00 | 0.00 | 36 | 1018.2 |
| 20260830193520 | 78 | 226 | 4.0 | 9.0 | 0.00 | 0.00 | 0.00 | 36 | 1018.1 |
| 20260830193043 | 78 | 223 | 4.0 | 9.0 | 0.00 | 0.00 | 0.00 | 37 | 1018.1 |
| 20260830192523 | 78 | 34 | 4.0 | 10.0 | 0.00 | 0.00 | 0.00 | 36 | 1018.1 |
| 20260830192021 | 78 | 242 | 4.0 | 10.0 | 0.00 | 0.00 | 0.00 | 35 | 1018.2 |
| 20260830191541 | 78 | 221 | 1.0 | 10.0 | 0.00 | 0.00 | 0.00 | 35 | 1018.3 |
| 20260830191024 | 78 | 290 | 3.0 | 10.0 | 0.00 | 0.00 | 0.00 | 36 | 1018.3 |
| 20260830190521 | 78 | 0 | 3.0 | 8.0 | 0.00 | 0.00 | 0.00 | 36 | 1018.4 |
| 20260830190043 | 77 | 59 | 3.0 | 13.0 | 0.00 | 0.00 | 0.00 | 36 | 1018.4 |
| 20260830185523 | 78 | 200 | 3.0 | 13.0 | 0.00 | 0.00 | 0.00 | 37 | 1018.3 |
| 20260830185023 | 78 | 296 | 3.0 | 13.0 | 0.00 | 0.00 | 0.00 | 36 | 1018.4 |
| 20260830184542 | 78 | 204 | 2.0 | 12.0 | 0.00 | 0.00 | 0.00 | 35 | 1018.3 |
| 20260830184021 | 77 | 244 | 2.0 | 7.0 | 0.00 | 0.00 | 0.00 | 35 | 1018.4 |
| 20260830183524 | 76 | 34 | 2.0 | 7.0 | 0.00 | 0.00 | 0.00 | 36 | 1018.4 |
| 20260830183048 | 76 | 190 | 2.0 | 8.0 | 0.00 | 0.00 | 0.00 | 37 | 1018.5 |
| 20260830182524 | 76 | 191 | 3.0 | 8.0 | 0.00 | 0.00 | 0.00 | 38 | 1018.5 |
| 20260830182021 | 76 | 352 | 3.0 | 8.0 | 0.00 | 0.00 | 0.00 | 38 | 1018.5 |
| 20260830181539 | 76 | 91 | 2.0 | 9.0 | 0.00 | 0.00 | 0.00 | 38 | 1018.4 |
| 20260830181023 | 76 | 205 | 3.0 | 9.0 | 0.00 | 0.00 | 0.00 | 38 | 1018.5 |
| 20260830180526 | 76 | 205 | 4.0 | 9.0 | 0.00 | 0.00 | 0.00 | 40 | 1018.4 |
| 20260830180046 | 75 | 326 | 3.0 | 10.0 | 0.00 | 0.00 | 0.00 | 42 | 1018.4 |
| 20260830175521 | 75 | 220 | 2.0 | 10.0 | 0.00 | 0.00 | 0.00 | 41 | 1018.5 |
| 20260830175028 | 75 | 219 | 4.0 | 10.0 | 0.00 | 0.00 | 0.00 | 41 | 1018.4 |
| 20260830174545 | 75 | 234 | 2.0 | 7.0 | 0.00 | 0.00 | 0.00 | 42 | 1018.4 |
| 20260830174022 | 74 | 289 | 2.0 | 7.0 | 0.00 | 0.00 | 0.00 | 42 | 1018.4 |
| 20260830173520 | 74 | 176 | 3.0 | 9.0 | 0.00 | 0.00 | 0.00 | 42 | 1018.4 |
| 20260830173040 | 74 | 209 | 2.0 | 9.0 | 0.00 | 0.00 | 0.00 | 43 | 1018.4 |
| 20260830172520 | 74 | 192 | 2.0 | 11.0 | 0.00 | 0.00 | 0.00 | 44 | 1018.4 |
| 20260830172019 | 73 | 204 | 3.0 | 11.0 | 0.00 | 0.00 | 0.00 | 44 | 1018.4 |
| 20260830171541 | 73 | 224 | 4.0 | 10.0 | 0.00 | 0.00 | 0.00 | 44 | 1018.3 |
| 20260830171026 | 73 | 89 | 3.0 | 10.0 | 0.00 | 0.00 | 0.00 | 43 | 1018.4 |
| 20260830170524 | 73 | 23 | 2.0 | 7.0 | 0.00 | 0.00 | 0.00 | 44 | 1018.3 |
| 20260830170042 | 73 | 252 | 2.0 | 7.0 | 0.00 | 0.00 | 0.00 | 44 | 1018.3 |
| 20260830165526 | 73 | 244 | 1.0 | 4.0 | 0.00 | 0.00 | 0.00 | 46 | 1018.2 |
| 20260830165021 | 72 | 234 | 2.0 | 6.0 | 0.00 | 0.00 | 0.00 | 45 | 1018.1 |
| 20260830164543 | 72 | 236 | 1.0 | 7.0 | 0.00 | 0.00 | 0.00 | 47 | 1018.1 |
| 20260830164028 | 72 | 189 | 2.0 | 7.0 | 0.00 | 0.00 | 0.00 | 45 | 1018.2 |
| 20260830163526 | 71 | 242 | 2.0 | 7.0 | 0.00 | 0.00 | 0.00 | 47 | 1018.2 |
| 20260830163051 | 70 | 28 | 1.0 | 7.0 | 0.00 | 0.00 | 0.00 | 47 | 1018.1 |
| 20260830162523 | 70 | 170 | 1.0 | 5.0 | 0.00 | 0.00 | 0.00 | 48 | 1018.2 |
| 20260830162023 | 69 | 289 | 1.0 | 5.0 | 0.00 | 0.00 | 0.00 | 49 | 1018.2 |
| 20260830161601 | 69 | 229 | 1.0 | 6.0 | 0.00 | 0.00 | 0.00 | 49 | 1018.1 |
| 20260830161023 | 68 | 0 | 0.0 | 6.0 | 0.00 | 0.00 | 0.00 | 50 | 1018.1 |
| 20260830160524 | 68 | 246 | 2.0 | 5.0 | 0.00 | 0.00 | 0.00 | 50 | 1018.1 |
| 20260830160044 | 67 | 0 | 0.0 | 4.0 | 0.00 | 0.00 | 0.00 | 51 | 1018.2 |
| 20260830155526 | 66 | 278 | 0.0 | 2.0 | 0.00 | 0.00 | 0.00 | 53 | 1018.1 |
| 20260830155026 | 65 | 0 | 0.0 | 0.0 | 0.00 | 0.00 | 0.00 | 55 | 1018.1 |
| 20260830154542 | 64 | 0 | 0.0 | 2.0 | 0.00 | 0.00 | 0.00 | 56 | 1018.2 |
| 20260830154024 | 64 | 0 | 0.0 | 2.0 | 0.00 | 0.00 | 0.00 | 55 | 1018.1 |
| 20260830153525 | 63 | 46 | 0.0 | 2.0 | 0.00 | 0.00 | 0.00 | 57 | 1018.2 |
| 20260830153057 | 63 | 47 | 0.0 | 2.0 | 0.00 | 0.00 | 0.00 | 56 | 1018.2 |
| 20260830152521 | 63 | 0 | 0.0 | 2.0 | 0.00 | 0.00 | 0.00 | 57 | 1018.1 |
| 20260830152026 | 62 | 0 | 0.0 | 2.0 | 0.00 | 0.00 | 0.00 | 56 | 1018.1 |
| 20260830151547 | 62 | 0 | 0.0 | 2.0 | 0.00 | 0.00 | 0.00 | 57 | 1018.2 |
| 20260830151024 | 62 | 56 | 0.0 | 3.0 | 0.00 | 0.00 | 0.00 | 55 | 1018.2 |
| 20260830150528 | 62 | 56 | 0.0 | 3.0 | 0.00 | 0.00 | 0.00 | 56 | 1018.1 |
| 20260830150053 | 62 | 0 | 0.0 | 2.0 | 0.00 | 0.00 | 0.00 | 55 | 1018.1 |
| 20260830145524 | 62 | 0 | 0.0 | 3.0 | 0.00 | 0.00 | 0.00 | 55 | 1018.1 |
| 20260830145024 | 62 | 60 | 1.0 | 4.0 | 0.00 | 0.00 | 0.00 | 54 | 1018.2 |
| 20260830144558 | 61 | 39 | 1.0 | 4.0 | 0.00 | 0.00 | 0.00 | 54 | 1018.1 |
| 20260830144025 | 61 | 56 | 1.0 | 4.0 | 0.00 | 0.00 | 0.00 | 54 | 1018.1 |
| 20260830143523 | 61 | 54 | 1.0 | 3.0 | 0.00 | 0.00 | 0.00 | 53 | 1018.1 |
| 20260830143055 | 61 | 0 | 0.0 | 3.0 | 0.00 | 0.00 | 0.00 | 52 | 1018.0 |
| 20260830142523 | 61 | 24 | 0.0 | 3.0 | 0.00 | 0.00 | 0.00 | 52 | 1018.0 |
| 20260830142024 | 61 | 47 | 1.0 | 3.0 | 0.00 | 0.00 | 0.00 | 51 | 1018.0 |
| 20260830141540 | 61 | 0 | 0.0 | 3.0 | 0.00 | 0.00 | 0.00 | 50 | 1018.0 |
| 20260830141024 | 61 | 0 | 0.0 | 3.0 | 0.00 | 0.00 | 0.00 | 49 | 1017.9 |
| 20260830140524 | 61 | 0 | 1.0 | 4.0 | 0.00 | 0.00 | 0.00 | 48 | 1017.8 |
| 20260830140049 | 61 | 69 | 1.0 | 4.0 | 0.00 | 0.00 | 0.00 | 47 | 1017.8 |
| 20260830135523 | 61 | 0 | 1.0 | 4.0 | 0.00 | 0.00 | 0.00 | 46 | 1017.7 |
| 20260830135025 | 61 | 50 | 1.0 | 4.0 | 0.00 | 0.00 | 0.00 | 45 | 1017.6 |
| 20260830134546 | 61 | 0 | 0.0 | 4.0 | 0.00 | 0.00 | 0.00 | 44 | 1017.5 |
| 20260830134020 | 61 | 53 | 1.0 | 3.0 | 0.00 | 0.00 | 0.00 | 44 | 1017.5 |
| 20260830133522 | 61 | 0 | 1.0 | 4.0 | 0.00 | 0.00 | 0.00 | 43 | 1017.5 |
| 20260830133041 | 61 | 55 | 0.0 | 4.0 | 0.00 | 0.00 | 0.00 | 43 | 1017.5 |
| 20260830132524 | 61 | 54 | 1.0 | 4.0 | 0.00 | 0.00 | 0.00 | 43 | 1017.5 |
| 20260830132024 | 61 | 0 | 1.0 | 3.0 | 0.00 | 0.00 | 0.00 | 42 | 1017.5 |
| 20260830131549 | 61 | 57 | 1.0 | 4.0 | 0.00 | 0.00 | 0.00 | 42 | 1017.4 |
| 20260830131025 | 61 | 58 | 1.0 | 4.0 | 0.00 | 0.00 | 0.00 | 41 | 1017.4 |
| 20260830130524 | 61 | 57 | 1.0 | 4.0 | 0.00 | 0.00 | 0.00 | 41 | 1017.4 |
| 20260830130059 | 61 | 67 | 1.0 | 3.0 | 0.00 | 0.00 | 0.00 | 40 | 1017.4 |
| 20260830125527 | 61 | 64 | 1.0 | 4.0 | 0.00 | 0.00 | 0.00 | 40 | 1017.5 |
| 20260830125021 | 61 | 50 | 1.0 | 4.0 | 0.00 | 0.00 | 0.00 | 40 | 1017.4 |
| 20260830124542 | 61 | 55 | 1.0 | 4.0 | 0.00 | 0.00 | 0.00 | 39 | 1017.4 |
| 20260830124027 | 61 | 67 | 1.0 | 4.0 | 0.00 | 0.00 | 0.00 | 39 | 1017.4 |
| 20260830123522 | 61 | 61 | 1.0 | 4.0 | 0.00 | 0.00 | 0.00 | 39 | 1017.3 |
| 20260830123041 | 61 | 61 | 1.0 | 3.0 | 0.00 | 0.00 | 0.00 | 40 | 1017.4 |
| 20260830122523 | 61 | 54 | 1.0 | 3.0 | 0.00 | 0.00 | 0.00 | 41 | 1017.3 |
| 20260830122023 | 61 | 57 | 1.0 | 3.0 | 0.00 | 0.00 | 0.00 | 43 | 1017.4 |
| 20260830121546 | 61 | 62 | 1.0 | 2.0 | 0.00 | 0.00 | 0.00 | 45 | 1017.3 |
| 20260830121022 | 61 | 62 | 1.0 | 2.0 | 0.00 | 0.00 | 0.00 | 45 | 1017.3 |
| 20260830120523 | 61 | 62 | 1.0 | 2.0 | 0.00 | 0.00 | 0.00 | 48 | 1017.4 |
| 20260830120050 | 61 | 62 | 1.0 | 2.0 | 0.00 | 0.00 | 0.00 | 49 | 1017.4 |
| 20260830115521 | 61 | 62 | 1.0 | 3.0 | 0.00 | 0.00 | 0.00 | 50 | 1017.4 |
| 20260830115021 | 60 | 62 | 1.0 | 3.0 | 0.00 | 0.00 | 0.00 | 51 | 1017.4 |
| 20260830114606 | 60 | 62 | 1.0 | 3.0 | 0.00 | 0.00 | 0.00 | 52 | 1017.5 |
| 20260830114024 | 60 | 54 | 1.0 | 2.0 | 0.00 | 0.00 | 0.00 | 52 | 1017.5 |
| 20260830113525 | 60 | 54 | 1.0 | 3.0 | 0.00 | 0.00 | 0.00 | 52 | 1017.6 |
| 20260830113048 | 60 | 54 | 1.0 | 3.0 | 0.00 | 0.00 | 0.00 | 52 | 1017.5 |
| 20260830112524 | 60 | 53 | 1.0 | 3.0 | 0.00 | 0.00 | 0.00 | 53 | 1017.5 |
| 20260830112025 | 61 | 53 | 0.0 | 1.0 | 0.00 | 0.00 | 0.00 | 53 | 1017.5 |
| 20260830111542 | 61 | 0 | 0.0 | 0.0 | 0.00 | 0.00 | 0.00 | 53 | 1017.5 |
| 20260830111021 | 61 | 0 | 0.0 | 0.0 | 0.00 | 0.00 | 0.00 | 52 | 1017.5 |
| 20260830110520 | 61 | 0 | 0.0 | 0.0 | 0.00 | 0.00 | 0.00 | 52 | 1017.5 |
| 20260830110055 | 61 | 0 | 0.0 | 0.0 | 0.00 | 0.00 | 0.00 | 52 | 1017.5 |
| 20260830105527 | 61 | 0 | 0.0 | 0.0 | 0.00 | 0.00 | 0.00 | 52 | 1017.6 |
| 20260830105023 | 62 | 0 | 0.0 | 0.0 | 0.00 | 0.00 | 0.00 | 51 | 1017.6 |
| 20260830104548 | 62 | 0 | 0.0 | 0.0 | 0.00 | 0.00 | 0.00 | 51 | 1017.6 |
| 20260830104021 | 62 | 0 | 0.0 | 0.0 | 0.00 | 0.00 | 0.00 | 51 | 1017.6 |
| 20260830103526 | 62 | 0 | 0.0 | 0.0 | 0.00 | 0.00 | 0.00 | 51 | 1017.7 |
| 20260830103048 | 62 | 0 | 0.0 | 0.0 | 0.00 | 0.00 | 0.00 | 51 | 1017.7 |
| 20260830102526 | 62 | 0 | 0.0 | 0.0 | 0.00 | 0.00 | 0.00 | 50 | 1017.6 |
| 20260830102025 | 62 | 0 | 0.0 | 0.0 | 0.00 | 0.00 | 0.00 | 51 | 1017.6 |
| 20260830101551 | 62 | 0 | 0.0 | 0.0 | 0.00 | 0.00 | 0.00 | 51 | 1017.6 |
| 20260830101024 | 62 | 0 | 0.0 | 0.0 | 0.00 | 0.00 | 0.00 | 50 | 1017.6 |
| 20260830100521 | 62 | 0 | 0.0 | 2.0 | 0.00 | 0.00 | 0.00 | 50 | 1017.6 |
| 20260830100042 | 62 | 0 | 0.0 | 2.0 | 0.00 | 0.00 | 0.00 | 50 | 1017.6 |
| 20260830095525 | 62 | 71 | 0.0 | 2.0 | 0.00 | 0.00 | 0.00 | 50 | 1017.7 |
| 20260830095024 | 63 | 0 | 0.0 | 2.0 | 0.00 | 0.00 | 0.00 | 50 | 1017.6 |
| 20260830094547 | 63 | 71 | 1.0 | 2.0 | 0.00 | 0.00 | 0.00 | 50 | 1017.6 |
| 20260830094021 | 63 | 73 | 1.0 | 2.0 | 0.00 | 0.00 | 0.00 | 50 | 1017.5 |
| 20260830093522 | 62 | 68 | 1.0 | 2.0 | 0.00 | 0.00 | 0.00 | 50 | 1017.4 |
| 20260830093041 | 62 | 67 | 1.0 | 2.0 | 0.00 | 0.00 | 0.00 | 51 | 1017.4 |
| 20260830092521 | 62 | 67 | 1.0 | 3.0 | 0.00 | 0.00 | 0.00 | 51 | 1017.5 |
| 20260830092020 | 62 | 93 | 1.0 | 3.0 | 0.00 | 0.00 | 0.00 | 51 | 1017.5 |
| 20260830091543 | 62 | 68 | 1.0 | 2.0 | 0.00 | 0.00 | 0.00 | 50 | 1017.5 |
| 20260830091025 | 62 | 68 | 0.0 | 2.0 | 0.00 | 0.00 | 0.00 | 49 | 1017.5 |
| 20260830090525 | 62 | 0 | 0.0 | 3.0 | 0.00 | 0.00 | 0.00 | 49 | 1017.5 |
| 20260830090053 | 61 | 67 | 1.0 | 3.0 | 0.00 | 0.00 | 0.00 | 48 | 1017.5 |
| 20260830085524 | 61 | 64 | 2.0 | 3.0 | 0.00 | 0.00 | 0.00 | 48 | 1017.5 |
| 20260830085019 | 62 | 63 | 1.0 | 3.0 | 0.00 | 0.00 | 0.00 | 48 | 1017.7 |
| 20260830084542 | 62 | 62 | 1.0 | 3.0 | 0.00 | 0.00 | 0.00 | 48 | 1017.6 |
| 20260830084024 | 62 | 62 | 1.0 | 3.0 | 0.00 | 0.00 | 0.00 | 47 | 1017.7 |
| 20260830083525 | 62 | 0 | 1.0 | 3.0 | 0.00 | 0.00 | 0.00 | 47 | 1017.7 |
| 20260830083052 | 62 | 64 | 1.0 | 3.0 | 0.00 | 0.00 | 0.00 | 47 | 1017.8 |
| 20260830082521 | 62 | 70 | 1.0 | 2.0 | 0.00 | 0.00 | 0.00 | 46 | 1017.8 |
| 20260830082023 | 62 | 76 | 0.0 | 3.0 | 0.00 | 0.00 | 0.00 | 46 | 1017.8 |
| 20260830081552 | 62 | 67 | 1.0 | 3.0 | 0.00 | 0.00 | 0.00 | 46 | 1017.8 |
| 20260830081022 | 62 | 63 | 1.0 | 3.0 | 0.00 | 0.00 | 0.00 | 46 | 1017.9 |
| 20260830080523 | 62 | 64 | 1.0 | 4.0 | 0.00 | 0.00 | 0.00 | 46 | 1018.0 |
| 20260830080042 | 62 | 79 | 1.0 | 4.0 | 0.00 | 0.00 | 0.00 | 46 | 1018.0 |
| 20260830075523 | 62 | 54 | 1.0 | 4.0 | 0.00 | 0.00 | 0.00 | 46 | 1017.9 |
| 20260830075025 | 62 | 55 | 1.0 | 3.0 | 0.00 | 0.00 | 0.00 | 46 | 1017.9 |
| 20260830074552 | 62 | 0 | 0.0 | 3.0 | 0.00 | 0.00 | 0.00 | 47 | 1017.8 |
| 20260830074021 | 62 | 59 | 0.0 | 3.0 | 0.00 | 0.00 | 0.00 | 47 | 1017.8 |
| 20260830073525 | 62 | 63 | 1.0 | 3.0 | 0.00 | 0.00 | 0.00 | 47 | 1017.8 |
| 20260830073047 | 62 | 0 | 1.0 | 3.0 | 0.00 | 0.00 | 0.00 | 47 | 1017.8 |
| 20260830072523 | 62 | 51 | 1.0 | 3.0 | 0.00 | 0.00 | 0.00 | 48 | 1017.8 |
| 20260830072023 | 62 | 61 | 0.0 | 3.0 | 0.00 | 0.00 | 0.00 | 48 | 1017.8 |
| 20260830071551 | 62 | 55 | 0.0 | 3.0 | 0.00 | 0.00 | 0.00 | 48 | 1017.8 |
| 20260830071021 | 62 | 51 | 0.0 | 3.0 | 0.00 | 0.00 | 0.00 | 48 | 1017.8 |
| 20260830070523 | 62 | 0 | 0.0 | 4.0 | 0.00 | 0.00 | 0.00 | 47 | 1017.7 |
| 20260830070047 | 62 | 0 | 0.0 | 4.0 | 0.00 | 0.00 | 0.00 | 48 | 1017.8 |
| 20260830065519 | 62 | 22 | 0.0 | 5.0 | 0.00 | 0.00 | 0.00 | 48 | 1017.7 |
| 20260830065022 | 62 | 352 | 1.0 | 5.0 | 0.00 | 0.00 | 0.00 | 49 | 1017.8 |
| 20260830064546 | 62 | 62 | 0.0 | 3.0 | 0.00 | 0.00 | 0.00 | 49 | 1017.8 |
| 20260830064025 | 62 | 0 | 0.0 | 3.0 | 0.00 | 0.00 | 0.00 | 49 | 1017.9 |
| 20260830063525 | 62 | 55 | 0.0 | 4.0 | 0.00 | 0.00 | 0.00 | 49 | 1017.9 |
| 20260830063048 | 62 | 0 | 1.0 | 4.0 | 0.00 | 0.00 | 0.00 | 49 | 1017.8 |
| 20260830062522 | 62 | 0 | 0.0 | 0.0 | 0.00 | 0.00 | 0.00 | 49 | 1017.9 |
| 20260830062024 | 62 | 0 | 0.0 | 4.0 | 0.00 | 0.00 | 0.00 | 49 | 1017.9 |
| 20260830061541 | 62 | 0 | 0.0 | 4.0 | 0.00 | 0.00 | 0.00 | 49 | 1017.9 |
| 20260830061022 | 62 | 0 | 1.0 | 3.0 | 0.00 | 0.00 | 0.00 | 48 | 1018.0 |
| 20260830060521 | 62 | 0 | 1.0 | 3.0 | 0.00 | 0.00 | 0.00 | 48 | 1018.0 |
| 20260830060041 | 62 | 0 | 1.0 | 3.0 | 0.00 | 0.00 | 0.00 | 48 | 1018.1 |
| 20260830055521 | 63 | 0 | 0.0 | 3.0 | 0.00 | 0.00 | 0.00 | 48 | 1018.1 |
| 20260830055025 | 63 | 60 | 0.0 | 3.0 | 0.00 | 0.00 | 0.00 | 47 | 1018.1 |
| 20260830054542 | 63 | 51 | 0.0 | 3.0 | 0.00 | 0.00 | 0.00 | 47 | 1018.1 |
| 20260830054025 | 63 | 63 | 1.0 | 3.0 | 0.00 | 0.00 | 0.00 | 47 | 1018.2 |
| 20260830053524 | 63 | 62 | 1.0 | 3.0 | 0.00 | 0.00 | 0.00 | 47 | 1018.2 |
| 20260830053042 | 63 | 60 | 1.0 | 3.0 | 0.00 | 0.00 | 0.00 | 47 | 1018.3 |
| 20260830052522 | 63 | 61 | 1.0 | 3.0 | 0.00 | 0.00 | 0.00 | 46 | 1018.2 |
| 20260830052026 | 63 | 0 | 1.0 | 3.0 | 0.00 | 0.00 | 0.00 | 46 | 1018.1 |
| 20260830051554 | 63 | 69 | 1.0 | 3.0 | 0.00 | 0.00 | 0.00 | 46 | 1018.2 |
| 20260830051021 | 63 | 65 | 1.0 | 3.0 | 0.00 | 0.00 | 0.00 | 46 | 1018.3 |
| 20260830050520 | 63 | 0 | 1.0 | 3.0 | 0.00 | 0.00 | 0.00 | 46 | 1018.3 |
| 20260830050047 | 63 | 68 | 1.0 | 4.0 | 0.00 | 0.00 | 0.00 | 47 | 1018.4 |
| 20260830045519 | 63 | 74 | 1.0 | 4.0 | 0.00 | 0.00 | 0.00 | 47 | 1018.4 |
| 20260830045024 | 63 | 57 | 1.0 | 4.0 | 0.00 | 0.00 | 0.00 | 47 | 1018.4 |
| 20260830044553 | 63 | 61 | 1.0 | 4.0 | 0.00 | 0.00 | 0.00 | 46 | 1018.4 |
| 20260830044023 | 63 | 67 | 1.0 | 3.0 | 0.00 | 0.00 | 0.00 | 46 | 1018.4 |
| 20260830043523 | 63 | 59 | 1.0 | 3.0 | 0.00 | 0.00 | 0.00 | 45 | 1018.4 |
| 20260830043043 | 63 | 67 | 1.0 | 3.0 | 0.00 | 0.00 | 0.00 | 43 | 1018.4 |
| 20260830042525 | 63 | 71 | 1.0 | 2.0 | 0.00 | 0.00 | 0.00 | 42 | 1018.4 |
| 20260830042020 | 64 | 70 | 0.0 | 3.0 | 0.00 | 0.00 | 0.00 | 41 | 1018.4 |
| 20260830041539 | 64 | 0 | 0.0 | 3.0 | 0.00 | 0.00 | 0.00 | 41 | 1018.4 |
| 20260830041028 | 64 | 153 | 1.0 | 3.0 | 0.00 | 0.00 | 0.00 | 41 | 1018.3 |
| 20260830040522 | 64 | 153 | 1.0 | 3.0 | 0.00 | 0.00 | 0.00 | 41 | 1018.3 |
| 20260830040109 | 64 | 153 | 1.0 | 3.0 | 0.00 | 0.00 | 0.00 | 42 | 1018.3 |
| 20260830035524 | 64 | 153 | 2.0 | 3.0 | 0.00 | 0.00 | 0.00 | 42 | 1018.3 |
| 20260830035021 | 64 | 153 | 1.0 | 3.0 | 0.00 | 0.00 | 0.00 | 41 | 1018.2 |
| 20260830034542 | 65 | 153 | 1.0 | 2.0 | 0.00 | 0.00 | 0.00 | 40 | 1018.1 |